Flag for Russia Weather past 2 weeks in Astrakhan, Russia

Now
27 °F

Clear.


Feels Like: 16 °F
Forecast: 30 / 44 °F
Wind: 13 mph from East

Location: Astrakhan

Current Time: Feb 28, 2015 at 12:54:40 AM

Latest Report: Feb 28, 2015 at 12:30 AM


Visibility: 10 mi

Pressure: 30.33 "Hg

Humidity: 93%

Dew point: 25 °F

Location of AstrakhanLocation

Historic Weather in Astrakhan — Graph

°F

Astrakhan temperature yesterday

Maximum temperature yesterday: 43 °F (at 2:00 PM)
Minimum temperature yesterday: 25 °F (at 3:00 AM)
Average temperature yesterday: 31 °F

Past Weeks' High & Low Weather Summary

 TemperatureHumidityPressure
High46 °F (Feb 23, 3:00 PM)100% (Feb 26, 11:00 PM)30.60 "Hg (Feb 26, 11:00 PM)
Low7 °F (Feb 18, 4:00 AM)25% (Feb 23, 3:00 PM)30.04 "Hg (Feb 16, 6:30 AM)
Average26 °F74%30.34 "Hg
* Reported Feb 12 11:00 PM — Feb 27 11:30 PM, Astrakhan, Weather by CustomWeather, © 2015

Note: Actual official high and low records may vary slightly from our data, if they occured in-between our weather recording intervals... More about our weather records

Advertising

Astrakhan weather history for previous 24 hours

 ConditionsComfort  
Time TempWeatherWind HumidityBarometerVisibility
11:30 PM
Fri, Feb 27
27 °FPassing clouds.8 mph93%30.39 "Hg5 mi
11:00 PM27 °FPassing clouds.10 mph93%30.39 "Hg5 mi
10:30 PM28 °FPassing clouds.8 mph93%30.39 "Hg4 mi
10:00 PM28 °FIce fog.10 mph93%30.39 "Hg2 mi
9:30 PM28 °FIce fog.13 mph93%30.42 "Hg2 mi
9:00 PM28 °FIce fog.13 mph93%30.45 "Hg1 mi
8:30 PM28 °FIce fog.13 mph93%30.45 "Hg0 mi
8:00 PM28 °FIce fog.10 mph100%30.45 "Hg1 mi
7:30 PM30 °FIce fog.10 mph93%30.45 "Hg1 mi
7:00 PM32 °FClear.10 mph87%30.45 "Hg10 mi
6:30 PM32 °FPartly cloudy.10 mph87%30.48 "HgN/A
6:00 PM34 °FSunny.10 mph81%30.48 "Hg10 mi
5:30 PM34 °FSunny.10 mph81%30.48 "Hg10 mi
5:00 PM36 °FSunny.13 mph81%30.48 "Hg10 mi
4:30 PM37 °FBroken clouds.15 mph75%30.48 "HgN/A
4:00 PM37 °FBroken clouds.15 mph75%30.48 "HgN/A
3:30 PM39 °FBroken clouds.15 mph70%30.48 "HgN/A
3:00 PM41 °FPartly sunny.13 mph70%30.48 "HgN/A
2:30 PM41 °FPartly sunny.15 mph70%30.48 "HgN/A
2:00 PM43 °FPartly sunny.15 mph66%30.48 "HgN/A
1:30 PM39 °FPartly sunny.13 mph75%30.48 "HgN/A
1:00 PM37 °FPartly sunny.15 mph81%30.51 "HgN/A
12:30 PM36 °FMostly cloudy.13 mph87%30.51 "HgN/A
12:00 PM34 °FLow clouds.13 mph93%30.51 "HgN/A
11:30 AM32 °FIce fog.8 mph93%30.54 "Hg3 mi
11:00 AM32 °FIce fog.10 mph93%30.57 "Hg1 mi
10:30 AM30 °FIce fog.8 mph100%30.57 "Hg1 mi
10:00 AM30 °FIce fog.8 mph93%30.57 "Hg1 mi
9:30 AM28 °FIce fog.8 mph100%30.57 "Hg1 mi
9:00 AM28 °FIce fog.10 mph93%30.57 "Hg1 mi
8:30 AM28 °FIce fog.10 mph93%30.57 "Hg0 mi
8:00 AM28 °FIce fog.10 mph93%30.57 "Hg0 mi
7:30 AM28 °FIce fog.10 mph93%30.57 "Hg0 mi
6:30 AM28 °FIce fog.8 mph93%30.57 "Hg0 mi
6:00 AM28 °FIce fog.8 mph93%30.57 "Hg0 mi
5:30 AM28 °FIce fog.8 mph93%30.57 "Hg0 mi
5:00 AM28 °FIce fog.10 mph93%30.57 "Hg0 mi
4:30 AM28 °FIce fog.8 mph93%30.57 "Hg0 mi
4:00 AM27 °FIce fog.6 mph93%30.57 "Hg0 mi
3:30 AM25 °FIce fog.8 mph93%30.57 "Hg0 mi
3:00 AM25 °FIce fog.10 mph93%30.57 "Hg0 mi
2:30 AM27 °FLow clouds.6 mph93%30.57 "Hg4 mi
2:00 AM27 °FPassing clouds.6 mph93%30.57 "Hg4 mi
1:30 AM27 °FPassing clouds.6 mph93%30.57 "Hg4 mi
1:00 AM27 °FLow clouds.8 mph93%30.57 "Hg4 mi
12:30 AM27 °FIce fog.8 mph93%30.57 "Hg2 mi
12:00 AM28 °FIce fog.8 mph93%30.60 "Hg2 mi
Weather by CustomWeather, © 2015

See weather overviewHow to use our weather pages